EDT,Max TemperatureF,Mean TemperatureF,Min TemperatureF,Max Dew PointF,MeanDew PointF,Min DewpointF,Max Humidity, Mean Humidity, Min Humidity, Max Sea Level PressureIn, Mean Sea Level PressureIn, Min Sea Level PressureIn, Max VisibilityMiles, Mean VisibilityMiles, Min VisibilityMiles, Max Wind SpeedMPH, Mean Wind SpeedMPH, Max Gust SpeedMPH,PrecipitationIn, CloudCover, Events, WindDirDegrees
2013-10-1,79,68,56,62,59,55,100,76,52,30.16,30.10,30.04,10,8,1,9,1,20,0.00,4,Fog,243
2013-10-2,82,71,59,66,62,58,97,74,51,30.17,30.11,30.06,10,10,9,7,1,10,0.00,6,,9
2013-10-3,83,74,64,64,62,61,93,72,51,30.13,30.08,30.04,10,10,7,10,2,13,0.00,6,,226
2013-10-4,84,72,59,65,62,59,100,76,51,30.17,30.12,30.07,10,7,0,7,2,13,0.00,3,Fog,38
2013-10-5,86,73,60,67,63,59,100,74,48,30.15,30.07,29.99,10,7,1,10,2,13,0.00,2,,223
2013-10-6,84,72,59,65,62,58,100,73,46,29.98,29.89,29.80,10,9,5,23,8,32,0.03,4,Rain,193
2013-10-7,69,61,52,55,52,44,93,68,42,30.08,29.95,29.86,10,7,1,14,6,16,0.28,6,Rain,2
2013-10-8,73,61,49,55,48,45,86,66,46,30.14,30.10,30.07,10,10,10,22,8,29,0.00,2,,35
2013-10-9,76,63,50,57,53,49,96,71,46,30.21,30.14,30.11,10,10,10,9,3,16,0.00,2,,31
2013-10-10,76,64,51,57,53,50,100,71,41,30.18,30.12,30.04,10,5,0,10,2,15,0.00,3,Fog,48
2013-10-11,79,65,51,57,54,50,100,72,43,30.09,30.03,29.98,10,10,8,7,2,,0.00,1,Fog,5
2013-10-12,80,67,53,60,56,52,100,70,39,30.10,30.05,30.01,10,10,7,10,1,16,0.00,3,Fog,265
2013-10-13,77,68,58,62,59,56,100,79,58,30.21,30.17,30.11,10,8,1,10,2,13,0.00,6,Fog,53
2013-10-14,79,70,60,63,60,57,97,73,48,30.23,30.16,30.09,10,10,7,13,4,16,0.00,6,,40
2013-10-15,73,66,59,61,60,58,100,81,61,30.15,30.09,30.02,10,10,7,10,3,12,0.00,7,Fog,253
2013-10-16,70,64,58,61,58,56,93,80,66,30.05,29.99,29.94,10,10,10,12,4,,0.01,8,Rain,248
2013-10-17,69,63,56,66,61,49,100,84,67,30.02,29.91,29.85,10,6,1,17,6,22,0.59,8,Rain,255
2013-10-18,66,57,48,51,48,45,96,72,48,30.07,30.00,29.96,10,10,10,12,5,16,0.00,6,,11
2013-10-19,65,57,48,52,49,43,96,81,65,30.04,29.95,29.90,10,10,6,20,6,22,T,5,,256
2013-10-20,64,52,39,43,40,37,93,66,39,30.12,30.06,30.02,10,10,10,9,2,14,0.00,1,,37
2013-10-21,71,54,37,53,42,36,100,69,37,30.14,30.07,29.99,10,6,0,17,4,22,0.00,4,Fog-Snow,265
2013-10-22,68,59,49,50,49,47,83,68,52,30.00,29.93,29.85,10,10,8,10,5,14,T,6,Rain,264
2013-10-23,54,45,36,49,39,30,93,71,48,30.12,29.95,29.80,10,10,9,22,8,31,T,5,,253
2013-10-24,55,46,36,38,36,33,92,71,50,30.27,30.17,30.12,10,10,10,14,5,21,0.00,7,,261
2013-10-25,53,42,31,30,27,23,82,57,32,30.46,30.38,30.29,10,10,10,13,3,17,0.00,2,,20
2013-10-26,60,45,30,34,29,24,92,59,26,30.34,30.25,30.12,10,7,0,22,8,25,0.00,5,Fog,237
2013-10-27,64,58,51,51,41,33,77,61,44,30.14,30.11,30.08,10,10,10,10,4,15,0.00,8,,239
2013-10-28,70,62,54,53,51,49,86,69,52,30.27,30.20,30.12,10,10,6,17,6,22,T,7,Rain,233
2013-10-29,74,63,51,54,52,48,93,71,49,30.33,30.28,30.22,10,8,1,10,2,13,0.00,6,,273
2013-10-30,80,70,60,56,54,52,84,62,39,30.25,30.18,30.12,10,10,10,17,7,24,0.00,7,,231
2013-10-31,76,69,61,59,56,52,78,62,46,30.12,29.93,29.65,10,10,10,37,13,45,T,8,Rain,208